When you browse on this site, cookies collect data to enhance your experience and personalize the content and advertising you see.
Visit our Privacy Policy to learn more. By continuing to use the site, you agree to this use of cookies and data.
  • In Germany
  • List of Countries
  • For 7 days
  • Water Temperature
  • Satellite Maps
  • Weather Map
  • Weather Widgets
  • user-avatar
    Login

    Hourly Weather Mahilyow

    Today, 16 November, Friday

    Time Temperature Precipitation Wind Pressure Humidity
    00:00 -3°C° 0 mm 2 mps 764 mmHg 92%
    01:00 -3°C° 0 mm 2 mps 764 mmHg 91%
    02:00 -3°C° 0 mm 1 mps 765 mmHg 87%
    03:00 -5°C° 0 mm 2 mps 765 mmHg 86%
    04:00 -5°C° 0 mm 2 mps 765 mmHg 85%
    05:00 -5°C° 0 mm 2 mps 765 mmHg 84%
    06:00 -5°C° 0 mm 2 mps 766 mmHg 82%
    07:00 -5°C° 0 mm 2 mps 766 mmHg 81%
    08:00 -5°C° 0 mm 2 mps 766 mmHg 79%
    09:00 -4°C° 0 mm 2 mps 767 mmHg 75%
    10:00 -3°C° 0 mm 2 mps 767 mmHg 71%
    11:00 -1°C° 0 mm 2 mps 767 mmHg 66%
    12:00 -1°C° 0 mm 2 mps 767 mmHg 67%
    13:00 -1°C° 0 mm 2 mps 767 mmHg 68%
    14:00 +1°C° 0 mm 2 mps 767 mmHg 69%
    15:00 -1°C° 0 mm 2 mps 767 mmHg 72%
    16:00 -3°C° 0 mm 2 mps 767 mmHg 74%
    17:00 -4°C° 0 mm 2 mps 767 mmHg 77%
    18:00 -4°C° 0 mm 2 mps 767 mmHg 76%
    19:00 -5°C° 0 mm 2 mps 768 mmHg 74%
    20:00 -5°C° 0 mm 2 mps 768 mmHg 73%
    21:00 -5°C° 0 mm 2 mps 768 mmHg 71%
    22:00 -5°C° 0 mm 2 mps 768 mmHg 69%
    23:00 -5°C° 0 mm 2 mps 768 mmHg 68%

    Tomorrow, 17 November, Saturday

    Time Temperature Precipitation Wind Pressure Humidity
    00:00 -5°C° 0 mm 2 mps 768 mmHg 66%
    01:00 -5°C° 0 mm 2 mps 768 mmHg 64%
    02:00 -3°C° 0 mm 1 mps 768 mmHg 63%
    03:00 -3°C° 0 mm 1 mps 767 mmHg 61%
    04:00 -4°C° 0 mm 1 mps 767 mmHg 60%
    05:00 -4°C° 0 mm 1 mps 767 mmHg 59%
    06:00 -4°C° 0 mm 1 mps 767 mmHg 58%
    07:00 -4°C° 0 mm 1 mps 767 mmHg 58%
    08:00 -4°C° 0 mm 1 mps 767 mmHg 57%
    09:00 -2°C° 0 mm 1 mps 767 mmHg 54%
    10:00 -1°C° 0 mm 1 mps 766 mmHg 52%
    11:00 0°C° 0 mm 0 mps 766 mmHg 49%
    12:00 +1°C° 0 mm 1 mps 766 mmHg 51%
    13:00 +1°C° 0 mm 1 mps 765 mmHg 53%
    14:00 +2°C° 0 mm 1 mps 764 mmHg 55%
    15:00 +1°C° 0 mm 1 mps 764 mmHg 57%
    16:00 0°C° 0 mm 1 mps 763 mmHg 58%
    17:00 -3°C° 0 mm 2 mps 763 mmHg 60%
    18:00 -3°C° 0 mm 2 mps 762 mmHg 61%
    19:00 -3°C° 0 mm 2 mps 762 mmHg 61%
    20:00 -3°C° 0 mm 2 mps 761 mmHg 62%
    21:00 -3°C° 0 mm 2 mps 761 mmHg 64%
    22:00 -4°C° 0 mm 3 mps 760 mmHg 65%
    23:00 -4°C° 0 mm 3 mps 759 mmHg 67%

    Day after tomorrow, 18 November, Sunday

    Time Temperature Precipitation Wind Pressure Humidity
    00:00 -4°C° 0 mm 3 mps 759 mmHg 71%
    01:00 -4°C° 0 mm 3 mps 758 mmHg 75%
    02:00 -4°C° 0 mm 3 mps 757 mmHg 79%
    03:00 -4°C° 0 mm 3 mps 756 mmHg 82%
    04:00 -2°C° 0 mm 3 mps 755 mmHg 85%
    05:00 -2°C° 0 mm 4 mps 754 mmHg 88%
    06:00 -2°C° 0.1 mm 4 mps 753 mmHg 90%
    07:00 -2°C° 0.1 mm 4 mps 753 mmHg 92%
    08:00 0°C° 0.1 mm 3 mps 752 mmHg 94%
    09:00 0°C° 0.1 mm 3 mps 752 mmHg 94%
    10:00 +1°C° 0.1 mm 3 mps 752 mmHg 94%
    11:00 +1°C° 0.1 mm 3 mps 751 mmHg 95%
    12:00 +1°C° 0.1 mm 3 mps 751 mmHg 95%
    13:00 +2°C° 0.1 mm 2 mps 751 mmHg 95%
    14:00 +2°C° 0.1 mm 2 mps 750 mmHg 95%
    15:00 +2°C° 0.2 mm 2 mps 750 mmHg 96%
    16:00 +2°C° 0.2 mm 2 mps 750 mmHg 97%
    17:00 +1°C° 0.2 mm 2 mps 749 mmHg 97%
    18:00 +1°C° 0.3 mm 2 mps 749 mmHg 97%
    19:00 +1°C° 0.3 mm 2 mps 749 mmHg 97%
    20:00 +1°C° 0.3 mm 2 mps 749 mmHg 97%
    21:00 +1°C° 0.1 mm 2 mps 749 mmHg 97%
    22:00 +1°C° 0.1 mm 2 mps 749 mmHg 97%
    23:00 +1°C° 0.1 mm 2 mps 749 mmHg 97%

    19 November, Monday

    Time Temperature Precipitation Wind Pressure Humidity
    00:00 +1°C° 0.2 mm 2 mps 749 mmHg 97%
    01:00 +1°C° 0.2 mm 2 mps 750 mmHg 97%
    02:00 +1°C° 0.2 mm 2 mps 750 mmHg 97%
    03:00 +1°C° 0.1 mm 2 mps 750 mmHg 97%
    04:00 +1°C° 0.1 mm 2 mps 750 mmHg 97%
    05:00 +1°C° 0.1 mm 2 mps 750 mmHg 97%
    06:00 +1°C° 0.1 mm 2 mps 750 mmHg 96%
    07:00 +1°C° 0.1 mm 2 mps 750 mmHg 96%
    08:00 0°C° 0.1 mm 3 mps 751 mmHg 96%
    09:00 0°C° 0.2 mm 3 mps 751 mmHg 96%
    10:00 +1°C° 0.2 mm 2 mps 751 mmHg 95%
    11:00 +1°C° 0.2 mm 2 mps 752 mmHg 95%
    12:00 +1°C° 0.1 mm 2 mps 752 mmHg 95%
    13:00 +1°C° 0.1 mm 2 mps 752 mmHg 94%
    14:00 +1°C° 0.1 mm 2 mps 752 mmHg 94%
    15:00 0°C° 0.1 mm 3 mps 753 mmHg 94%
    16:00 0°C° 0.1 mm 3 mps 753 mmHg 94%
    17:00 -1°C° 0.1 mm 3 mps 753 mmHg 94%
    18:00 -1°C° 0.1 mm 3 mps 753 mmHg 94%
    19:00 -1°C° 0.1 mm 3 mps 754 mmHg 93%
    20:00 -1°C° 0.1 mm 3 mps 754 mmHg 93%
    21:00 -2°C° 0 mm 3 mps 754 mmHg 92%
    22:00 -2°C° 0 mm 3 mps 755 mmHg 91%
    23:00 -4°C° 0 mm 3 mps 755 mmHg 90%

    20 November, Tuesday

    Time Temperature Precipitation Wind Pressure Humidity
    00:00 -4°C° 0 mm 3 mps 755 mmHg 90%
    01:00 -5°C° 0 mm 3 mps 755 mmHg 89%
    02:00 -6°C° 0 mm 3 mps 755 mmHg 89%
    03:00 -6°C° 0 mm 3 mps 755 mmHg 89%
    04:00 -5°C° 0 mm 3 mps 755 mmHg 88%
    05:00 -5°C° 0 mm 3 mps 755 mmHg 88%
    06:00 -5°C° 0 mm 3 mps 755 mmHg 89%
    07:00 -5°C° 0 mm 3 mps 755 mmHg 89%
    08:00 -5°C° 0 mm 4 mps 755 mmHg 90%
    09:00 -4°C° 0.1 mm 4 mps 755 mmHg 90%
    10:00 -3°C° 0.1 mm 4 mps 755 mmHg 90%
    11:00 -2°C° 0.1 mm 4 mps 755 mmHg 89%
    12:00 -2°C° 0 mm 4 mps 755 mmHg 89%
    13:00 -2°C° 0 mm 4 mps 754 mmHg 88%
    14:00 -2°C° 0 mm 4 mps 754 mmHg 87%
    15:00 -2°C° 0 mm 4 mps 754 mmHg 87%
    16:00 -1°C° 0 mm 3 mps 754 mmHg 88%
    17:00 -2°C° 0 mm 3 mps 754 mmHg 88%
    18:00 -2°C° 0 mm 3 mps 754 mmHg 88%
    19:00 -2°C° 0 mm 3 mps 754 mmHg 88%
    20:00 -2°C° 0 mm 3 mps 753 mmHg 88%
    21:00 -2°C° 0 mm 3 mps 753 mmHg 88%
    22:00 -2°C° 0 mm 3 mps 753 mmHg 89%
    23:00 -4°C° 0 mm 3 mps 753 mmHg 90%

    21 November, Wednesday

    Time Temperature Precipitation Wind Pressure Humidity
    00:00 -3°C° 0 mm 2 mps 753 mmHg 91%
    01:00 -3°C° 0 mm 2 mps 753 mmHg 92%
    02:00 -3°C° 0 mm 2 mps 753 mmHg 93%
    03:00 -4°C° 0 mm 3 mps 753 mmHg 93%
    04:00 -2°C° 0 mm 3 mps 752 mmHg 93%
    05:00 -2°C° 0 mm 3 mps 752 mmHg 93%
    06:00 -2°C° 0 mm 3 mps 752 mmHg 93%
    07:00 -2°C° 0 mm 3 mps 752 mmHg 92%
    08:00 -3°C° 0 mm 4 mps 752 mmHg 92%
    09:00 -3°C° 0 mm 4 mps 752 mmHg 91%
    10:00 -2°C° 0 mm 4 mps 751 mmHg 89%
    11:00 -2°C° 0 mm 5 mps 751 mmHg 88%
    12:00 -2°C° 0 mm 5 mps 751 mmHg 88%
    13:00 -2°C° 0 mm 5 mps 751 mmHg 88%
    14:00 -2°C° 0 mm 5 mps 750 mmHg 87%
    15:00 -2°C° 0 mm 5 mps 750 mmHg 88%
    16:00 -4°C° 0 mm 6 mps 749 mmHg 88%
    17:00 -4°C° 0 mm 6 mps 749 mmHg 88%
    18:00 -4°C° 0 mm 6 mps 749 mmHg 88%
    19:00 -4°C° 0 mm 6 mps 749 mmHg 87%
    20:00 -4°C° 0 mm 6 mps 748 mmHg 86%
    21:00 -4°C° 0 mm 6 mps 748 mmHg 87%
    22:00 -4°C° 0 mm 6 mps 748 mmHg 87%
    23:00 -4°C° 0 mm 6 mps 748 mmHg 88%
    Show more